TimeCET,TemperatureF,Dew PointF,Humidity,Sea Level PressureIn,VisibilityMPH,Wind Direction,Wind SpeedMPH,Gust SpeedMPH,PrecipitationIn,Events,Conditions,WindDirDegrees,DateUTC
12:55 AM,17.6,3.2,53,29.56,6.2,North,11.5,-,N/A,,Scattered Clouds,350,2012-12-10 23:55:00
1:00 AM,17,4,41,,6,North,11.5,,,,Partly Cloudy,350,2012-12-11 00:00:00
3:55 AM,15.8,3.2,58,29.59,-9999.0,NW,3.5,-,N/A,,Clear,320,2012-12-11 02:55:00
4:00 AM,17,4,41,,6,NW,3.5,,,,,320,2012-12-11 03:00:00
4:55 AM,15.8,3.2,58,29.59,-9999.0,NNW,4.6,-,N/A,,Clear,330,2012-12-11 03:55:00
5:55 AM,15.8,3.2,58,29.59,-9999.0,NW,5.8,-,N/A,,Clear,310,2012-12-11 04:55:00
6:55 AM,17.6,5.0,58,29.59,-9999.0,WNW,6.9,-,N/A,,Clear,300,2012-12-11 05:55:00
7:00 AM,17,5,44,,12,WNW,6.9,,,,,300,2012-12-11 06:00:00
8:55 AM,15.8,6.8,68,29.59,6.2,WNW,8.1,-,N/A,,Scattered Clouds,300,2012-12-11 07:55:00
9:55 AM,15.8,6.8,68,29.62,6.2,NNW,6.9,-,N/A,,Mostly Cloudy,330,2012-12-11 08:55:00
10:00 AM,16,7,54,,25,NNW,6.9,,,,Mostly Cloudy,330,2012-12-11 09:00:00
10:55 AM,17.6,8.6,68,29.65,6.2,North,8.1,-,N/A,,Mostly Cloudy,360,2012-12-11 09:55:00
11:55 AM,17.6,5.0,58,29.65,6.2,NW,19.6,-,N/A,,Mostly Cloudy,320,2012-12-11 10:55:00
12:55 PM,17.6,1.4,49,29.65,6.2,NNW,16.1,-,N/A,,Partly Cloudy,330,2012-12-11 11:55:00
1:00 PM,17,2,36,,31,NNW,16.1,,,,Scattered Clouds,330,2012-12-11 12:00:00
1:55 PM,17.6,3.2,53,29.65,6.2,NNW,13.8,-,N/A,,Partly Cloudy,330,2012-12-11 12:55:00
2:55 PM,15.8,1.4,53,29.65,6.2,NW,12.7,-,N/A,,Partly Cloudy,320,2012-12-11 13:55:00
3:55 PM,15.8,1.4,53,29.71,-9999.0,NNW,12.7,-,N/A,,Clear,330,2012-12-11 14:55:00
4:00 PM,15,2,40,,44,NNW,12.7,,,,,330,2012-12-11 15:00:00
4:55 PM,12.2,1.4,62,29.71,-9999.0,NNW,10.4,-,N/A,,Clear,330,2012-12-11 15:55:00
6:55 PM,10.4,1.4,67,29.74,-9999.0,NW,9.2,-,N/A,,Clear,310,2012-12-11 17:55:00
7:00 PM,11,2,52,,19,NW,9.2,,,,,310,2012-12-11 18:00:00
9:55 PM,10.4,1.4,67,29.77,-9999.0,North,6.9,-,N/A,,Clear,350,2012-12-11 20:55:00
10:00 PM,10,2,57,,19,North,6.9,,,,,350,2012-12-11 21:00:00